Погода в Авиле

Испания     40°39′31″N   4°41′50″W
темп.,
°C
ветер,
м/с
пор.,
м/с
влажн.,
%
обл.,
%
осадки,
мм/ч
давл.,
гПа
погр.,
м
28 ноября, вс
вс2801:00−2з8148143 0.0 1017484
04:00−2зсз713885 0.0 1019510
07:00−2зсз814865 0.0 1019465
10:000зсз812765 0.0 1021649
13:00+3зсз1013575 0.0 10191041
16:00+4зсз10136761 0.0 10171112
19:00+2зсз10169095 0.0 1018672
22:00+4з111795100 0.1 1018794
29 ноября, пн
пн2901:00+4зсз12179699 0.2 1017737
04:00+4зсз11169498 0.1 1018756
07:00+4зсз91493100 0.1 1020581
10:00+4з8119034 0.0 1022510
13:00+6зсз8107559 0.0 1021899
16:00+7сз6767100 0.0 1020954
19:00+6зсз487065 0.0 1022289
22:00+3з33827 0.0 102441
30 ноября, вт
вт3001:00+1юз2287100 0.0 102514
04:00+1ююв1185100 0.0 102510
07:00+1вюв1185100 0.0 102510
10:00+4св117715 0.0 102790
13:00+8всв11605 0.0 1025531
16:00+9ссв11566 0.0 1024683
19:00+3ссв11805 0.0 102610
22:00+3ююз11820 0.0 102710
1 декабря, ср
ср101:00+2юз22810 0.0 102610
04:00+2юз22785 0.0 102611
07:00+2зюз22725 0.0 102417
10:00+5зюз4107435 0.0 1024374
13:00+9з8126460 0.0 10201145
16:00+9з9127898 0.1 10181088
19:00+7з81487100 0.1 1018840
22:00+5з91590100 0.1 1018644
2 декабря, чт
чт201:00+4зсз101588100 0.1 1016930
04:00+3з12178688 0.0 1015906
07:00+2зсз111794100 0.1 10151054
10:00+2сз8138441 0.6 10181085
13:00+4сз9136087 0.7 10191508
16:00+5ссз91358100 0.1 10181579
19:00+3ссз7128697 0.2 1022967
22:000сз510834 0.1 1025278